weather.gov     
National Weather Service

Regional Weather Roundup
NWS Homepage
This page is being discontinued on March 12, 2014.
The same data is available at this site. Please update your bookmarks.
Thank you, and we apologize for the inconvenience.
Please send an email to SR-SRH.Webmaster@noaa.gov with any concerns.


Current Version
Previous Version:    01  02  03  04  05  06  07  08  09  10  11  12  13  14  15  16  17  18  19  20  21  22  23  24  25  26  
[Printable]
525
ASUS42 KTBW 241110
RWRFL
FLORIDA REGIONAL WEATHER ROUNDUP
NATIONAL WEATHER SERVICE TAMPA BAY RUSKIN FL
700 AM EDT THU APR 24 2014

NOTE: "FAIR" INDICATES FEW OR NO CLOUDS BELOW 12,000 FEET WITH NO
SIGNIFICANT WEATHER AND/OR OBSTRUCTIONS TO VISIBILITY.


FLZ001>010-012>015-112-114-115-241200-
PANHANDLE FLORIDA

CITY           SKY/WX    TMP DP  RH WIND       PRES   REMARKS
PENSACOLA      PTCLDY    65  63  93 CALM      29.95R FOG
PENSACOLA NAS  PTCLDY    63  63 100 CALM      29.94R
MILTON NAS     FOG       64  63  96 CALM      29.95R VSB<1/4
CRESTVIEW      FOG       64  63  96 CALM      29.97R VSB 1/4
DUKE FIELD     FOG       65  65 100 SW3       29.96R VSB 1/4
VALPARAISO     FOG       65  65 100 NW3       29.95R VSB 1/4
MARY ESTHER    CLOUDY    64  60  87 N2        29.94R
PANAMA CITY    FOG       64  63  94 NW3       29.94S VSB 1/8
TYNDALL AFB    CLOUDY    64  63  94 NW2       29.96R FOG
APALACHICOLA   FOG       63  60  90 CALM      29.96R VSB 1/2

STATION/POSITION SKY/WX   TEMP    WIND        PRES    WAVE   SWELL
                          AIR SEA DIR/SP/G            HT/PER HT/PER
                          (F)     (DEG/KT/KT) (MB)    (FT/S) (FT/S)
30.1N   87.6W              69 71  210/  6/  8 1014.2R   1
29.2N   88.2W              69 71  230/  6/  6 1014.1R
28.8N   86.0W              69 70   20/  4/  4 1014.7R   1
PANAMA CITY BEAC           67 66  340/  3/  5 1014.0R
CAPE SAN BLAS    NOT AVBL
TOWER C                    67     280/  4/  4 1014.6R
28.5N   84.5W              69 70     CALM     1014.6R   1/ 4

$$
FLZ011-016>038-118-127-128-134-139-239-241200-
NORTH FLORIDA

CITY           SKY/WX    TMP DP  RH WIND       PRES   REMARKS
MARIANNA       CLOUDY    64  64 100 CALM      29.96R FOG
TALLAHASSEE    FOG       64  61  90 CALM      29.96S VSB 1/2
PERRY          FOG       61  61 100 CALM      29.97R VSB 1/4
CROSS CITY       N/A     64  64 100 CALM      29.97R
GAINESVILLE    FOG       63  62  97 CALM      29.98R VSB 1/2
MAYPORT NAS    PTCLDY    63  60  90 S5        29.97R FOG
JACKSONVILLE   MOCLDY    62  62 100 CALM      29.96R FOG
JAX NAS        FOG       66  63  90 SW6       29.98R VSB 1/4
JAX CRAIG      PTCLDY    65  61  87 SW3       29.97R
JAX CECIL      FOG       63  63 100 CALM      29.97R VSB 1/4
FERNANDINA BEA CLOUDY    64  63  94 CALM      29.95R
ST AUGUSTINE   MOCLDY    65  63  93 W3        29.98R FOG

STATION/POSITION SKY/WX   TEMP    WIND        PRES    WAVE   SWELL
                          AIR SEA DIR/SP/G            HT/PER HT/PER
                          (F)     (DEG/KT/KT) (MB)    (FT/S) (FT/S)
SHELL POINT                66     290/  4/  5 1013.0R
KEATON BEACH               65      20/  2/  2 1014.9R
CEDAR KEY                  68     310/  2/  3 1015.5R
FERNANDINA                 66 66  320/  1/  2 1013.7R
30.7N   81.3W                 68                N/A     1/ 9
MAYPORT                    65 66  190/  4/  5   N/A
31.4N   80.9W              67 66  200/  4/  4 1014.4R   1/ 9   2/ 9
ST AUGUSTINE               65     270/  4/  5 1015.4R

$$
FLZ040-043>046-052-053-057-058-063-144-241200-
INTERIOR CENTRAL FLORIDA

CITY           SKY/WX    TMP DP  RH WIND       PRES   REMARKS
OCALA          CLOUDY    64  64 100 CALM      29.98R FOG
THE VILLAGES   FOG       64  64 100 CALM      29.97S VSB 1/4
LEESBURG       CLOUDY    67  65  93 NW3       29.98S FOG
SANFORD        CLEAR     63  62  97 CALM      29.97R FOG
ORLANDO EXEC   CLEAR     67  64  90 CALM      29.97R
ORLANDO INTL   CLEAR     66  63  90 CALM      29.97R
KISSIMMEE      CLEAR     64  64 100 CALM      29.97  FOG
WINTER HAVEN     N/A    N/A N/A N/A MISG      29.98R
BARTOW         FOG       64 N/A N/A NW6       29.98R VSB<1/4
OKEECHOBEE     CLEAR     57  57 100 CALM      29.97R FOG

$$
FLZ041-047-054-059-064-141-147-241200-
EAST CENTRAL FLORIDA

CITY           SKY/WX    TMP DP  RH WIND       PRES   REMARKS
ORMOND BEACH   CLEAR     63  61  94 CALM      29.98  FOG
DAYTONA BEACH  PTCLDY    63  62  97 CALM      29.98R FOG
DELAND         MOSUNNY   63  63 100 CALM      29.98R
NEW SMYRNA BEA CLEAR     63  61  94 SW5       29.98  FOG
JFK SPACE CTR  CLEAR     60  59  97 N1        29.97R
TITUSVILLE     CLEAR     61  61 100 CALM        N/A  FOG
CAPE CANAVERAL CLEAR     61  60  97 NW1       29.96R
PATRICK AFB    CLEAR     69  66  91 N3        29.96R
MELBOURNE      CLEAR     64  62  93 CALM      29.96R
VERO BEACH     FOG       61  61 100 CALM      29.97R VSB<1/4
FT PIERCE      FOG       61  59  93 CALM      29.96R VSB 1/2
STUART         CLEAR     64  63  94 CALM      29.97R

STATION/POSITION SKY/WX   TEMP    WIND        PRES    WAVE   SWELL
                          AIR SEA DIR/SP/G            HT/PER HT/PER
                          (F)     (DEG/KT/KT) (MB)    (FT/S) (FT/S)
28.5N   80.2W              74 78  200/  4/  6 1014.5R
28.9N   78.5W              73 75   CALM  /  2 1015.3R   2/ 8   2/ 8
TRIDENT PIER               67 75  310/  1/  2 1013.9R
28.4N   80.5W                 72                N/A     1/ 8
27.6N   80.2W                 74                N/A     2/ 8

$$
FLZ050-056-061-142-242-148-248-149-249-151-251-155-255-
160-260-241200-
WEST CENTRAL FLORIDA

CITY           SKY/WX    TMP DP  RH WIND       PRES   REMARKS
CRYSTAL RIVER  FOG       59  57  94 CALM      29.98R VSB 1/4
INVERNESS      FOG       61  59  94 CALM      29.99R VSB<1/4
BROOKSVILLE    LGT RAIN  58  57  97 CALM      29.98R VSB 1/4
CLEARWATER     PTCLDY    62  60  93 SW3       29.97R FOG
TAMPA INTL     PTCLDY    65  63  93 CALM      29.98R FOG
TAMPA EXEC     MOCLDY    61  57  88 CALM      29.98R FOG
PLANT CITY     FOG       64 N/A N/A CALM      29.99R VSB<1/4
MACDILL AFB    CLEAR     61  61 100 NE1       29.98R FOG
PETER O KNIGHT CLEAR     66  64  94 CALM      29.98R FOG
ST PETERSBURG  PTCLDY    69  66  90 CALM      29.96R
SARASOTA       CLEAR     61  60  97 E3        29.97R FOG
VENICE           N/A     63  63 100 E3        29.98R FOG

STATION/POSITION SKY/WX   TEMP    WIND        PRES    WAVE   SWELL
                          AIR SEA DIR/SP/G            HT/PER HT/PER
                          (F)     (DEG/KT/KT) (MB)    (FT/S) (FT/S)
CEDAR KEY                  68     310/  2/  3 1015.5R
28.5N   84.5W              69 70     CALM     1014.6R   1/ 4
27.3N   84.3W                 73                N/A     1
CLEARWATER BEACH           69 73   80/  2/  2 1014.3R
MIDDLE TAMPA BAY           69     350/  3/  5 1014.9R
VENICE                     64 73   70/  5/  5 1014.6R

$$
FLZ066-069-070-075>078-162-262-165-265-241200-
SOUTHWEST FLORIDA AND KEYS

CITY           SKY/WX    TMP DP  RH WIND       PRES   REMARKS
PUNTA GORDA    FOG       61  60  97 CALM      29.99R VSB 1/4
FT MYERS       CLEAR     63  61  93 CALM      29.97R FOG
SOUTHWEST INTL CLEAR     61  59  93 CALM      29.98R FOG
NAPLES         CLEAR     64  63  96 E3        29.97R FOG
MARATHON       CLEAR     71  66  84 E3        29.97R
KEY WEST NAS   PTCLDY    70  65  84 NE5       29.98R
KEY WEST INTL  CLEAR     71  66  84 NE3       29.98R

STATION/POSITION SKY/WX   TEMP    WIND        PRES    WAVE   SWELL
                          AIR SEA DIR/SP/G            HT/PER HT/PER
                          (F)     (DEG/KT/KT) (MB)    (FT/S) (FT/S)
VENICE                     64 73   70/  5/  5 1014.6R
NAPLES                     65 77   80/  4/  6 1015.2R
26.0N   85.6W              76 80  130/  8/ 10 1013.7R   1/ 4   2/ 4
DRY TORTUGAS     NOT AVBL
NW FL BAY                  73      70/  2/  3 1014.9R
SOMBRERO KEY               74      80/  6/  8 1015.8R
LONG KEY                   73 79   70/  6/  7 1016.0R
MOLASSES REEF              72 79  360/  2/  3 1015.4R

$$
FLZ067-068-071>074-168-172>174-241200-
SOUTHEAST FLORIDA

CITY           SKY/WX    TMP DP  RH WIND       PRES   REMARKS
W PALM BEACH   PTCLDY    68  62  81 CALM      29.95R
FT LAUDER-EXEC CLEAR     68  63  84 CALM      29.96R
FT LAUDERDALE  PTCLDY    69  63  81 CALM      29.96R
POMPANO BEACH  CLEAR     68  63  84 SW3       29.97R
PEMBROKE PINES CLEAR     67  63  87 CALM      29.98R
OPA LOCKA      CLEAR     67  61  81 W3        29.97R
MIAMI          PTCLDY    68  62  81 CALM      29.98R
WEST KENDALL   CLEAR     61  61 100 SW3       29.98R
HOMESTEAD      CLEAR     61  58  89 S3        29.99R

STATION/POSITION SKY/WX   TEMP    WIND        PRES    WAVE   SWELL
                          AIR SEA DIR/SP/G            HT/PER HT/PER
                          (F)     (DEG/KT/KT) (MB)    (FT/S) (FT/S)
PORT EVERGLADES            69     260/  2/  4 1014.7
VIRGINIA KEY               70 78   CALM  /  1 1014.9R
LAKE WORTH                 71 79     CALM     1014.0R
FOWEY ROCKS                73 77   CALM  /  1 1015.1R
SETTLEMENT POINT           74     130/  6/  7 1015.5R

$$





U.S. Dept. of Commerce
NOAA National Weather Service
1325 East West Highway
Silver Spring, MD 20910
E-mail: w-nws.webmaster@noaa.gov
Page last modified: May 16, 2007
NATIONAL WEATHER SERVICE: for Safety, for Work, for Fun - FOR LIFE